(3360) Syrinx = 1981 VA

Discovered at Palomar on 1981-11-04 by E. F. Helin and R. S. Dunbar.
(3360) Syrinx = 1981 VA

In 1918 the Danish composer Carl Nielsen (1865-1931) composed the tone poem Pan and Syrinx, based on a story in Ovid's Metamorphoses. Syrinx was a river nymph who was pursued by Pan. The gods, taking pity on her, transformed her into a collection of reeds. The name was suggested by J. Meeus. [Ref: Minor Planet Circ. 57949]

Orbit

Orbit type: Apollo
1+ KM Near-Earth Object

Note: WebGL enabled browser required.

epoch2023-02-25.0
epoch JD2460000.5
perihelion date2020-05-20.74562
perihelion JD2458990.24562
argument of perihelion (°)63.55996
ascending node (°)242.47736
inclination (°)21.14355
eccentricity0.7456386
perihelion distance (AU)0.6274576
Tisserand w.r.t. Jupiter3.0
ΔV w.r.t. Earth (km/sec)10.0
semimajor axis (AU)2.4667961
mean anomaly (°)257.00093
mean daily motion (°/day)0.25439230
aphelion distance (AU)4.306
period (years)3.87
P-vector [x]0.53485512
P-vector [y]-0.84482360
P-vector [z]-0.01425114
Q-vector [x]0.78205121
Q-vector [y]0.48858789
Q-vector [z]0.38688211
absolute magnitude16.04
phase slope0.15
uncertainty0
referenceMPO 745323
observations used543
oppositions17
arc length (days)15056
first opposition used1981
last opposition used2023
residual rms (arc-secs)0.76
perturbers coarse indicatorM-v
perturbers precise indicator003Ek
first observation date used1981-11-04.0
last observation date used2023-01-24.0
computer nameMPCLINUX
JD of orbit computation2456670.664464
perihelion JD uncertainty (days)9.3043E-06
argument of perihelion uncertainty (°)1.2544E-05
ascending node uncertainty (°)1.1925E-05
inclination uncertainty (°)1.2267E-05
eccentricity uncertainty 4.3239E-08
perihelion distance uncertainty (AU)1.0593E-07
Minimum Orbit Intersection Distances (in AU)
for orbit epoch: 2460000.5, reference: E2023-G86
Mercury0.25732
Venus0.05404
Earth0.10708
Mars0.04287
Jupiter1.77475
Saturn5.24196
Uranus14.6272
Neptune26.2635

Observations

567 total observations over interval: 1981 11 04.32187 – 2023 01 24.518469
These data are available for download (format description).

Date (UT) J2000 RA J2000 Dec Magn Location Ref
1981 11 04.32187 02 58 50.06 +56 48 00.8 16.5   675 – Palomar Mountain MPC 6481
1981 11 04.33576 02 58 46.39 +56 46 15.3   675 – Palomar Mountain MPC 6481
1981 11 05.39791 02 54 49.73 +54 30 54.8   675 – Palomar Mountain MPC 6481
1981 11 05.40833 02 54 47.42 +54 29 36.6   675 – Palomar Mountain MPC 6481
1981 11 05.48125 02 54 31.57 +54 20 21.9   675 – Palomar Mountain MPC 6481
1981 11 05.49166 02 54 29.48 +54 19 06.3   675 – Palomar Mountain MPC 6481
1981 11 07.08154 02 49 46.04 +51 06 35.7   801 – Oak Ridge Observatory MPC 6458
1981 11 07.13821 02 49 37.69 +50 59 54.2   675 – Palomar Mountain MPC 6498
1981 11 07.52085 02 48 33.27 +50 15 20.5   675 – Palomar Mountain MPC 6598
1981 11 08.08736 02 47 13.77 +49 10 48.8   801 – Oak Ridge Observatory MPC 6513
1981 11 09.24669 02 44 39.15 +47 03 15.6   801 – Oak Ridge Observatory MPC 6513
1981 11 17.10487 02 34 20.61 +35 17 26.7   675 – Palomar Mountain MPC 6498
1981 11 18.25140 02 33 28.51 +33 55 32.6   675 – Palomar Mountain MPC 6498
1981 11 18.47432 02 33 17.87 +33 40 02.6   675 – Palomar Mountain MPC 6498
1981 11 23.15038 02 31 02.17 +28 54 42.0   801 – Oak Ridge Observatory MPC 6513
1981 11 27.48322 02 30 09.00 +25 25 44.3 17   474 – Mount John Observatory, Lake Tekapo MPC 6590
1981 11 27.50509 02 30 08.77 +25 24 46.3   474 – Mount John Observatory, Lake Tekapo MPC 6590
1981 12 03.26494 02 30 20.96 +21 50 21.5   675 – Palomar Mountain MPC 6498
1981 12 04.29550 02 30 31.00 +21 18 26.7   675 – Palomar Mountain MPC 6498
1981 12 06.20487 02 30 56.35 +20 23 33.7   675 – Palomar Mountain MPC 6598
1981 12 06.28751 02 30 57.21 +20 21 18.7   675 – Palomar Mountain MPC 6598
1981 12 18.23266 02 35 54.35 +16 20 08.1   675 – Palomar Mountain MPC 6598
1981 12 23.15488 02 38 53.20 +15 17 58.0   675 – Palomar Mountain MPC 6598
1985 04 23.34911 10 09 09.64 -34 06 49.9 18   474 – Mount John Observatory, Lake Tekapo MPC 9656
1985 04 23.41485 10 08 59.80 -34 04 42.7   474 – Mount John Observatory, Lake Tekapo MPC 9656
1985 05 22.15196 09 19 36.16 -12 18 31.8 17.4 V 691 – Steward Observatory, Kitt Peak-Spacewatch MPC 9738
1985 05 22.16583 09 19 35.10 -12 17 43.1   691 – Steward Observatory, Kitt Peak-Spacewatch MPC 9738
1985 05 22.16843 09 19 34.92 -12 17 34.1   691 – Steward Observatory, Kitt Peak-Spacewatch MPC 9738
1985 05 22.17038 09 19 34.77 -12 17 27.4   691 – Steward Observatory, Kitt Peak-Spacewatch MPC 9738
1985 05 23.15122 09 18 23.57 -11 19 07.0   691 – Steward Observatory, Kitt Peak-Spacewatch MPC 9738
1985 05 23.16149 09 18 22.79 -11 18 30.4   691 – Steward Observatory, Kitt Peak-Spacewatch MPC 9738
1985 05 23.16464 09 18 22.54 -11 18 29.1   691 – Steward Observatory, Kitt Peak-Spacewatch MPC 9738
1985 05 24.31061 09 16 59.62 -10 08 18.4   474 – Mount John Observatory, Lake Tekapo MPC 10091
1985 05 24.33650 09 16 57.62 -10 06 44.9   474 – Mount John Observatory, Lake Tekapo MPC 10091
1985 10 03.50299 06 44 52.93 +28 30 34.6   675 – Palomar Mountain MPC 10369
1985 10 03.50681 06 44 52.91 +28 30 32.0   675 – Palomar Mountain MPC 10369
1985 11 06.42951 06 11 21.85 +21 52 24.4   675 – Palomar Mountain MPC 10272
1985 11 06.43715 06 11 20.99 +21 52 19.8   675 – Palomar Mountain MPC 10272
1985 11 06.44090 06 11 20.56 +21 52 16.5   675 – Palomar Mountain MPC 10272
1985 11 15.44191 05 53 32.15 +20 00 19.8 18.6 V 691 – Steward Observatory, Kitt Peak-Spacewatch MPC 10284
1985 11 15.45610 05 53 30.28 +20 00 08.5   691 – Steward Observatory, Kitt Peak-Spacewatch MPC 10284
1985 11 15.46841 05 53 28.73 +19 59 59.6   691 – Steward Observatory, Kitt Peak-Spacewatch MPC 10284
1985 11 16.45801 05 51 23.20 +19 47 37.1   691 – Steward Observatory, Kitt Peak-Spacewatch MPC 10284
1985 11 16.46949 05 51 21.70 +19 47 28.7   691 – Steward Observatory, Kitt Peak-Spacewatch MPC 10284
1985 11 16.48228 05 51 20.07 +19 47 18.9   691 – Steward Observatory, Kitt Peak-Spacewatch MPC 10284
2004 12 22.06332 21 12 59.03 -03 05 10.8 17.3 R 703 – Catalina Sky Survey MPS 122932
2004 12 22.06977 21 13 01.54 -03 05 01.2 17.0 R 703 – Catalina Sky Survey MPS 122932
2004 12 22.07626 21 13 04.06 -03 04 52.9 17.5 R 703 – Catalina Sky Survey MPS 122932
2004 12 22.08281 21 13 06.63 -03 04 44.1 17.5 R 703 – Catalina Sky Survey MPS 122932
2005 01 15.09826 23 31 43.38 +05 04 52.5   670 – Camarillo MPS 124918
2005 01 15.10907 23 31 46.50 +05 05 02.6   670 – Camarillo MPS 124918
2008 03 03.57687 10 13 34.24 -24 14 06.4 19.5 V E12 – Siding Spring Survey MPS 240996
2008 03 03.59029 10 13 33.09 -24 14 01.2 20.0 V E12 – Siding Spring Survey MPS 240996
2008 03 03.60409 10 13 31.87 -24 13 55.2 19.8 V E12 – Siding Spring Survey MPS 240996
2008 03 03.61784 10 13 30.68 -24 13 50.9 19.6 V E12 – Siding Spring Survey MPS 240996
2008 11 15.72228 20 20 12.87 +09 21 34.1 16.6 V 240 – Herrenberg Sternwarte MPS 265491
2008 11 15.72263 20 20 13.09 +09 21 34.2 16.6 V 240 – Herrenberg Sternwarte MPS 265491
2008 11 15.72837 20 20 16.62 +09 21 39.1 16.5 V 240 – Herrenberg Sternwarte MPS 265491
2008 11 15.72890 20 20 16.94 +09 21 39.5 16.5 V 240 – Herrenberg Sternwarte MPS 265491
2008 11 15.73834 20 20 22.76 +09 21 47.6 16.8 V 240 – Herrenberg Sternwarte MPS 265491
2008 11 15.73917 20 20 23.26 +09 21 48.3 16.8 V 240 – Herrenberg Sternwarte MPS 265491
2008 11 16.83402 20 31 41.93 +09 36 43.7 16.4 R J46 – Observatorio Montana Blanca, Tias MPS 265491
2008 11 16.83495 20 31 42.50 +09 36 44.5 16.4 R J46 – Observatorio Montana Blanca, Tias MPS 265491
2008 11 16.83504 20 31 42.55 +09 36 44.6 16.3 R J46 – Observatorio Montana Blanca, Tias MPS 265491
2008 11 17.63892 20 39 59.83 +09 46 36.0 16.6   084 – Pulkovo MPS 322520
2008 11 17.80736 20 41 43.08 +09 48 38.7 16.6 R 204 – Schiaparelli Observatory MPS 266669
2008 11 17.87375 20 42 23.82 +09 49 26.8 16.5 R J53 – Posadas MPS 265491
2008 11 17.87521 20 42 24.71 +09 49 27.8 16.5 R J53 – Posadas MPS 265491
2008 11 17.87609 20 42 25.25 +09 49 28.6 16.4 R J53 – Posadas MPS 265491
2008 11 17.87667 20 42 25.60 +09 49 29.0 16.4 R J53 – Posadas MPS 265491
2008 11 19.08652 20 54 46.61 +10 02 43.7 16.3 R H53 – Thompsonville MPS 265491
2008 11 19.08766 20 54 47.33 +10 02 45.0 16.4 R H53 – Thompsonville MPS 265491
2008 11 19.08906 20 54 48.20 +10 02 45.8 16.3 R H53 – Thompsonville MPS 265491
2008 11 19.09119 20 54 49.41 +10 02 46.8 16.6 R H53 – Thompsonville MPS 265491
2008 11 19.09362 20 54 51.00 +10 02 47.8 16.2 R H53 – Thompsonville MPS 265491
2008 11 19.09530 20 54 51.93 +10 02 49.3 16.4 R H53 – Thompsonville MPS 265491
2008 11 19.75815 21 01 34.35 +10 09 14.3 16.5   084 – Pulkovo MPS 322520
2008 11 19.76971 21 01 41.36 +10 09 24.9 16.3 R 130 – Lumezzane MPS 265491
2008 11 19.77080 21 01 42.03 +10 09 25.4 16.4 R 130 – Lumezzane MPS 265491
2008 11 19.77189 21 01 42.67 +10 09 26.1 16.3 R 130 – Lumezzane MPS 265491
2008 11 19.77297 21 01 43.35 +10 09 26.5 16.4 R 130 – Lumezzane MPS 265491
2008 11 20.06851 21 04 41.37 +10 12 12.1 16.7 R H53 – Thompsonville MPS 265491
2008 11 20.06936 21 04 41.92 +10 12 13.0 16.7 R H53 – Thompsonville MPS 265491
2008 11 20.07031 21 04 42.52 +10 12 13.5 16.6 R H53 – Thompsonville MPS 265491
2008 11 20.07333 21 04 44.31 +10 12 15.3 16.7 R H53 – Thompsonville MPS 265491
2008 11 20.07450 21 04 45.05 +10 12 15.1 16.6 R H53 – Thompsonville MPS 265491
2008 11 20.07656 21 04 46.22 +10 12 16.2 16.6 R H53 – Thompsonville MPS 265491
2008 11 21.75769 21 21 25.60 +10 25 47.3 16.0   084 – Pulkovo MPS 322520
2008 11 21.75879 21 21 26.23 +10 25 48.2 16.5   084 – Pulkovo MPS 322520
2008 11 22.05528 21 24 19.44 +10 27 58.0 16.8 R H53 – Thompsonville MPS 266669
2008 11 22.05676 21 24 20.38 +10 27 58.8 16.8 R H53 – Thompsonville MPS 266669
2008 11 22.05815 21 24 21.10 +10 27 59.6 16.8 R H53 – Thompsonville MPS 266669
2008 11 22.05954 21 24 21.94 +10 27 59.9 16.8 R H53 – Thompsonville MPS 266669
